Location: Atherton
(17.2661°S, 145.4859°E)
Time: 04:02:17
(UTC+10:00)

Tiros 1 despin weight - Visible Passes

Search period start: 22 May 2026 00:00
Search period end: 01 June 2026 00:00
Orbit: 555 x 591 km, 48.2° (Epoch: 20 May)

Date Brightness Start Highest point End Pass type
(mag) Time Alt. Az. Time Alt. Az. Time Alt. Az.
28 May ? 18:34:23 10° S 18:36:31 13° SE 18:37:00 13° SE visible
28 May ? 20:12:53 10° SW 20:13:12 12° SW 20:13:12 12° SW visible
29 May ? 18:35:00 10° S 18:38:25 22° SE 18:40:17 17° ESE visible
29 May ? 20:14:58 10° WSW 20:16:32 19° WSW 20:16:32 19° WSW visible
30 May ? 18:36:09 10° SSW 18:40:15 37° SE 18:44:13 11° ENE visible
30 May ? 20:17:36 10° W 20:20:30 18° NW 20:20:30 18° NW visible
31 May ? 18:37:37 10° SW 18:42:00 69° SE 18:46:23 10° NE visible
